Home > Weather > Völkermarkt > Past weeks

Flag for Austria Weather for the Past 2 Weeks in Völkermarkt, Carinthia, Austria

Now
62 °F

Passing clouds.


Feels Like: 62 °F
Forecast: 45 / 65 °F
Wind: N/A

Location: Klagenfurt-Flughafen

Current Time: May 6, 2016 at 1:39:14 PM

Latest Report: May 6, 2016 at 12:00 PM


Visibility: 16 mi

Pressure: 30.11 "Hg

Humidity: 53%

Dew Point: 45 °F

Location of VölkermarktLocation

Historic Weather in Völkermarkt — Graph

°F

Völkermarkt Temperature Yesterday

Maximum temperature yesterday: 65 °F (at 6:00 PM)
Minimum temperature yesterday: 46 °F (at 6:00 AM)
Average temperature yesterday: 54 °F

High & Low Weather Summary for the Past Weeks

 TemperatureHumidityPressure
High73 °F (Apr 22, 4:00 PM)100% (Apr 30, 9:00 AM)30.29 "Hg (Apr 30, 9:00 AM)
Low33 °F (Apr 27, 3:00 PM)20% (Apr 25, 5:00 PM)29.56 "Hg (Apr 23, 5:00 PM)
Average51 °F69%29.96 "Hg
* Reported Apr 21 12:00 Noon — May 6 12:00 Noon, Völkermarkt, Weather by CustomWeather, © 2016

Note: Actual official high and low records may vary slightly from our data, if they occured in-between our weather recording intervals... More about our weather records

Advertising

Völkermarkt Weather History for the Previous 24 Hours

Scroll right to see more
 ConditionsComfort  
Time TempWeatherWind HumidityBarometerVisibility
12:00 PM
Fri, May 6
62 °FPassing clouds.N/A53%30.11 "Hg16 mi
11:00 AM59 °FPassing clouds.N/A59%30.13 "Hg17 mi
10:00 AM56 °FPassing clouds.N/A67%30.16 "Hg22 mi
9:00 AM51 °FPassing clouds.N/A71%30.18 "Hg19 mi
8:00 AM49 °FPassing clouds.N/A81%30.20 "Hg22 mi
7:00 AM44 °FPassing clouds.N/A91%30.21 "Hg9 mi
6:00 AM44 °FPassing clouds.N/A92%30.20 "Hg8 mi
5:00 AM45 °FCool.N/A92%30.21 "Hg12 mi
4:00 AM47 °FPassing clouds.5 mph91%30.22 "Hg13 mi
3:00 AM48 °FPassing clouds.N/A87%30.21 "Hg14 mi
2:00 AM50 °FPassing clouds.N/A85%30.21 "Hg17 mi
1:00 AM52 °FOvercast.N/A80%30.21 "Hg22 mi
12:00 AM53 °FOvercast.N/A75%30.22 "Hg28 mi
11:00 PM
Thu, May 5
55 °FPassing clouds.N/A67%30.21 "Hg25 mi
10:00 PM56 °FPassing clouds.5 mph67%30.18 "Hg28 mi
9:00 PM58 °FPassing clouds.7 mph55%30.16 "Hg28 mi
8:00 PM60 °FPassing clouds.6 mph56%30.14 "Hg28 mi
7:00 PM64 °FPassing clouds.N/A49%30.11 "Hg22 mi
6:00 PM65 °FPassing clouds.N/A44%30.12 "Hg13 mi
5:00 PM64 °FPassing clouds.N/A46%30.14 "Hg22 mi
4:00 PM64 °FPassing clouds.N/A47%30.15 "Hg22 mi
3:00 PM61 °FPassing clouds.N/A48%30.18 "Hg19 mi
2:00 PM60 °FScattered clouds.N/A50%30.20 "Hg16 mi
1:00 PM58 °FPartly sunny.N/A57%30.22 "Hg22 mi
Weather by CustomWeather, © 2016

See weather overviewHow to use our weather pages